| time (UTC) | temp F | wind direction | speed knots | gust knots | rain 1hr in | rain 24hr in | rain mn in | humidity % | barometer mb |
| 20260507161616 | 54 | 174 | 1.7 | 5.2 | 0.00 | 0.00 | 0.00 | 40 | 1011.9 |
| 20260507160118 | 53 | 101 | 0.9 | 6.1 | 0.00 | 0.00 | 0.00 | 40 | 1012.2 |
| 20260507154600 | 51 | 77 | 0.9 | 4.3 | 0.00 | 0.00 | 0.00 | 44 | 1012.5 |
| 20260507153055 | 51 | 104 | 1.7 | 4.3 | 0.00 | 0.00 | 0.00 | 45 | 1012.7 |
| 20260507151553 | 50 | 256 | 0.9 | 7.0 | 0.00 | 0.00 | 0.00 | 45 | 1012.9 |
| 20260507150059 | 48 | 240 | 3.5 | 7.0 | 0.00 | 0.00 | 0.00 | 45 | 1013.2 |
| 20260507144600 | 48 | 261 | 1.7 | 4.3 | 0.00 | 0.00 | 0.00 | 46 | 1013.5 |
| 20260507143100 | 46 | 259 | 2.6 | 6.1 | 0.00 | 0.00 | 0.00 | 48 | 1013.7 |
| 20260507141605 | 45 | 264 | 0.9 | 6.1 | 0.00 | 0.00 | 0.00 | 51 | 1014.1 |
| 20260507140101 | 44 | 255 | 2.6 | 5.2 | 0.00 | 0.00 | 0.00 | 52 | 1014.3 |
| 20260507134603 | 44 | 232 | 3.5 | 5.2 | 0.00 | 0.00 | 0.00 | 53 | 1014.4 |
| 20260507133052 | 43 | 242 | 0.9 | 3.5 | 0.00 | 0.00 | 0.00 | 59 | 1014.4 |
| 20260507131556 | 41 | 252 | 1.7 | 3.5 | 0.00 | 0.00 | 0.00 | 63 | 1014.5 |
| 20260507130053 | 39 | 283 | 0.9 | 3.5 | 0.00 | 0.00 | 0.00 | 66 | 1014.5 |
| 20260507124554 | 39 | 240 | 1.7 | 4.3 | 0.00 | 0.00 | 0.00 | 70 | 1014.4 |
| 20260507123055 | 36 | 273 | 0.0 | 1.7 | 0.00 | 0.00 | 0.00 | 76 | 1014.3 |
| 20260507121557 | 34 | 0 | 0.0 | 0.0 | 0.00 | 0.00 | 0.00 | 81 | 1014.2 |
| 20260507120053 | 34 | 0 | 0.0 | 0.9 | 0.00 | 0.00 | 0.00 | 80 | 1014.0 |
| 20260507114559 | 33 | 266 | 0.0 | 0.9 | 0.00 | 0.00 | 0.00 | 82 | 1013.9 |
| 20260507113055 | 33 | 0 | 0.0 | 0.0 | 0.00 | 0.00 | 0.00 | 81 | 1013.8 |
| 20260507111559 | 32 | 0 | 0.0 | 2.6 | 0.00 | 0.00 | 0.00 | 79 | 1013.7 |
| 20260507110055 | 31 | 279 | 0.9 | 2.6 | 0.00 | 0.00 | 0.00 | 82 | 1013.6 |
| 20260507104554 | 30 | 0 | 0.0 | 0.0 | 0.00 | 0.00 | 0.00 | 85 | 1013.5 |
| 20260507103053 | 30 | 0 | 0.0 | 0.0 | 0.00 | 0.00 | 0.00 | 86 | 1013.5 |
| 20260507101611 | 30 | 0 | 0.0 | 0.0 | 0.00 | 0.00 | 0.00 | 88 | 1013.5 |
| 20260507100055 | 30 | 269 | 0.0 | 0.0 | 0.00 | 0.00 | 0.00 | 87 | 1013.5 |
| 20260507094556 | 31 | 0 | 0.0 | 0.0 | 0.00 | 0.00 | 0.00 | 86 | 1013.5 |
| 20260507093054 | 31 | 0 | 0.0 | 0.0 | 0.00 | 0.00 | 0.00 | 82 | 1013.5 |
| 20260507091551 | 31 | 0 | 0.0 | 0.0 | 0.00 | 0.00 | 0.00 | 82 | 1013.5 |
| 20260507090052 | 31 | 0 | 0.0 | 0.0 | 0.00 | 0.00 | 0.00 | 84 | 1013.5 |
| 20260507084553 | 31 | 0 | 0.0 | 0.0 | 0.00 | 0.00 | 0.00 | 80 | 1013.6 |
| 20260507083052 | 32 | 0 | 0.0 | 0.9 | 0.00 | 0.00 | 0.00 | 76 | 1013.6 |
| 20260507081551 | 32 | 0 | 0.0 | 0.0 | 0.00 | 0.00 | 0.00 | 74 | 1013.6 |
| 20260507080052 | 32 | 0 | 0.0 | 0.0 | 0.00 | 0.00 | 0.00 | 73 | 1013.6 |
| 20260507074556 | 33 | 0 | 0.0 | 0.9 | 0.00 | 0.00 | 0.00 | 72 | 1013.5 |
| 20260507073053 | 33 | 266 | 0.9 | 0.9 | 0.00 | 0.00 | 0.00 | 73 | 1013.8 |
| 20260507071553 | 33 | 0 | 0.0 | 0.9 | 0.00 | 0.00 | 0.00 | 71 | 1013.8 |
| 20260507070054 | 34 | 263 | 0.0 | 0.0 | 0.00 | 0.00 | 0.00 | 72 | 1013.9 |
| 20260507064606 | 34 | 0 | 0.0 | 0.9 | 0.00 | 0.00 | 0.00 | 72 | 1014.0 |
| 20260507063056 | 35 | 0 | 0.0 | 0.0 | 0.00 | 0.00 | 0.00 | 72 | 1014.2 |
| 20260507061553 | 36 | 0 | 0.0 | 0.9 | 0.00 | 0.00 | 0.00 | 71 | 1014.4 |
| 20260507060054 | 37 | 0 | 0.0 | 0.9 | 0.00 | 0.00 | 0.00 | 65 | 1014.4 |
| 20260507054604 | 37 | 265 | 0.9 | 2.6 | 0.00 | 0.00 | 0.00 | 64 | 1014.5 |
| 20260507053051 | 38 | 269 | 0.0 | 1.7 | 0.00 | 0.00 | 0.00 | 64 | 1014.5 |
| 20260507051551 | 37 | 269 | 0.9 | 1.7 | 0.00 | 0.00 | 0.00 | 65 | 1014.5 |
| 20260507050052 | 37 | 235 | 0.9 | 1.7 | 0.00 | 0.00 | 0.00 | 66 | 1014.6 |
| 20260507044555 | 37 | 252 | 0.0 | 0.9 | 0.00 | 0.00 | 0.00 | 66 | 1014.6 |
| 20260507043100 | 37 | 262 | 0.0 | 0.9 | 0.00 | 0.00 | 0.00 | 69 | 1014.6 |
| 20260507041603 | 37 | 0 | 0.0 | 0.9 | 0.00 | 0.00 | 0.00 | 66 | 1014.5 |
| 20260507040057 | 38 | 0 | 0.0 | 0.0 | 0.00 | 0.00 | 0.00 | 66 | 1014.6 |
| 20260507034557 | 39 | 0 | 0.0 | 0.0 | 0.00 | 0.00 | 0.00 | 62 | 1014.6 |
| 20260507033053 | 40 | 0 | 0.0 | 0.9 | 0.00 | 0.00 | 0.00 | 59 | 1014.7 |
| 20260507031552 | 41 | 274 | 0.0 | 0.9 | 0.00 | 0.00 | 0.00 | 56 | 1014.8 |
| 20260507030058 | 42 | 269 | 0.0 | 2.6 | 0.00 | 0.00 | 0.00 | 53 | 1014.9 |
| 20260507024553 | 43 | 283 | 1.7 | 2.6 | 0.00 | 0.00 | 0.00 | 50 | 1014.7 |
| 20260507023108 | 43 | 276 | 1.7 | 4.3 | 0.00 | 0.00 | 0.00 | 50 | 1014.5 |
| 20260507021557 | 44 | 279 | 0.9 | 6.1 | 0.00 | 0.00 | 0.00 | 49 | 1014.3 |
| 20260507020054 | 45 | 290 | 3.5 | 7.8 | 0.00 | 0.00 | 0.00 | 47 | 1014.2 |
| 20260507014609 | 45 | 290 | 1.7 | 7.0 | 0.00 | 0.00 | 0.00 | 47 | 1014.1 |
| 20260507013112 | 46 | 280 | 3.5 | 7.8 | 0.00 | 0.00 | 0.00 | 46 | 1013.9 |
| 20260507011554 | 47 | 288 | 0.9 | 5.2 | 0.00 | 0.00 | 0.00 | 47 | 1013.5 |
| 20260507010059 | 47 | 274 | 3.5 | 9.6 | 0.00 | 0.00 | 0.00 | 46 | 1013.4 |
| 20260507004604 | 48 | 264 | 3.5 | 8.7 | 0.00 | 0.00 | 0.00 | 45 | 1013.2 |
| 20260507003052 | 48 | 288 | 2.6 | 8.7 | 0.00 | 0.00 | 0.00 | 44 | 1013.2 |
| 20260507001609 | 49 | 294 | 3.5 | 8.7 | 0.00 | 0.00 | 0.00 | 43 | 1012.9 |
| 20260507000052 | 49 | 290 | 2.6 | 8.7 | 0.00 | 0.00 | 0.00 | 43 | 1012.8 |
| 20260506234554 | 50 | 235 | 4.3 | 7.8 | 0.00 | 0.00 | 0.00 | 41 | 1012.8 |
| 20260506233102 | 50 | 274 | 7.0 | 10.4 | 0.00 | 0.00 | 0.00 | 41 | 1012.8 |
| 20260506231550 | 51 | 280 | 5.2 | 9.6 | 0.00 | 0.00 | 0.00 | 40 | 1012.6 |
| 20260506230056 | 51 | 242 | 3.5 | 8.7 | 0.00 | 0.00 | 0.00 | 40 | 1012.6 |
| 20260506224551 | 51 | 238 | 4.3 | 7.8 | 0.00 | 0.00 | 0.00 | 40 | 1012.4 |
| 20260506223105 | 51 | 294 | 5.2 | 9.6 | 0.00 | 0.00 | 0.00 | 39 | 1012.3 |
| 20260506221551 | 51 | 293 | 6.1 | 12.2 | 0.00 | 0.00 | 0.00 | 39 | 1012.2 |
| 20260506220056 | 52 | 271 | 5.2 | 11.3 | 0.00 | 0.00 | 0.00 | 38 | 1012.2 |
| 20260506214604 | 52 | 268 | 4.3 | 10.4 | 0.00 | 0.00 | 0.00 | 38 | 1012.0 |
| 20260506213051 | 52 | 288 | 1.7 | 8.7 | 0.00 | 0.00 | 0.00 | 39 | 1012.1 |
| 20260506211556 | 52 | 290 | 5.2 | 10.4 | 0.00 | 0.00 | 0.00 | 38 | 1012.0 |
| 20260506204555 | 52 | 279 | 2.6 | 8.7 | 0.00 | 0.00 | 0.00 | 39 | 1012.0 |
| 20260506203100 | 53 | 276 | 1.7 | 8.7 | 0.00 | 0.00 | 0.00 | 39 | 1012.1 |
| 20260506201552 | 53 | 248 | 1.7 | 11.3 | 0.00 | 0.00 | 0.00 | 38 | 1012.3 |
| 20260506200135 | 53 | 271 | 4.3 | 12.2 | 0.00 | 0.00 | 0.00 | 38 | 1012.4 |
| 20260506194558 | 53 | 242 | 3.5 | 8.7 | 0.00 | 0.00 | 0.00 | 37 | 1012.4 |
| 20260506193052 | 53 | 278 | 4.3 | 10.4 | 0.00 | 0.00 | 0.00 | 36 | 1012.2 |
| 20260506191552 | 53 | 277 | 5.2 | 9.6 | 0.00 | 0.00 | 0.00 | 36 | 1012.2 |
| 20260506190055 | 52 | 297 | 4.3 | 9.6 | 0.00 | 0.00 | 0.00 | 38 | 1012.4 |
| 20260506184555 | 52 | 245 | 4.3 | 12.2 | 0.00 | 0.00 | 0.00 | 37 | 1012.4 |
| 20260506183053 | 52 | 224 | 5.2 | 11.3 | 0.00 | 0.00 | 0.00 | 37 | 1012.3 |
| 20260506181554 | 52 | 281 | 7.0 | 12.2 | 0.00 | 0.00 | 0.00 | 38 | 1012.3 |
| 20260506174553 | 52 | 288 | 1.7 | 9.6 | 0.00 | 0.00 | 0.00 | 39 | 1012.5 |
| 20260506173111 | 52 | 283 | 4.3 | 9.6 | 0.00 | 0.00 | 0.00 | 38 | 1012.5 |
| 20260506171600 | 51 | 290 | 5.2 | 10.4 | 0.00 | 0.00 | 0.00 | 40 | 1012.7 |
| 20260506170052 | 51 | 270 | 4.3 | 13.0 | 0.00 | 0.00 | 0.00 | 38 | 1012.7 |
| 20260506164554 | 52 | 285 | 4.3 | 9.6 | 0.00 | 0.00 | 0.00 | 39 | 1012.8 |
| 20260506163058 | 52 | 292 | 3.5 | 9.6 | 0.00 | 0.00 | 0.00 | 40 | 1012.8 |